CZ-6A R/B

Satellite information

Favourite Embed

Satellite Type and Status

ROCKET BODYIN ORBIT

Key statistics

Satellite CZ-6A R/B at a glance.

Uptime

393

Days in orbit

Revolutions

≈ 14.2

Per day

Orbit

LEO

Low Earth Orbit

Inclination

89.0

Latest

Satellite identification and parameters

Extended collection of information and parameters for CZ-6A R/B.

Object identification

Identified? True

Debris? False

Object name: CZ-6A R/B

International designator: 2024-140U

Object number (NORAD): 60397

Object ID (CCSDS): 60397

Country: PEOPLES REPUBLIC OF CHINA (PRC)

Current information (Y/N): Y

RCS size: LARGE

Orbital parameters

Period: 101.422 minutes

Inclination: 89.006 deg

SMA: 7204.15 km

Apoapsis: 856.72 km

Periapsis: 795.31 km

RAAN: 307.2309 deg

Eccentricy: 0.00426214

Argument of periapsis: 46.4138 deg

Mean anomaly: 314.0576 deg

Mean motion: 14.1980491 rev/day

Mean motion (dot): 0.00000183 rev/day2

B* drag term: 0.000078716262 1/REarth

Two-line elements (TLE)

Creation date: Sept. 3, 2025, 2:21 a.m.

Reference frame: TEME

Reference center: EARTH

Epoch: Sept. 2, 2025, 9:34 p.m. UTC

TLE line 0: 0 CZ-6A R/B

TLE line 1: 1 60397U 24140U 25245.89882367 .00000183 00000-0 78716-4 0 9990

TLE line 2: 2 60397 89.0060 307.2309 0042621 46.4138 314.0576 14.19804910 55424

Live tracking on map

Real-time ground track for satellite CZ-6A R/B.

In-orbit conjunctions

A list of the most updated potential collisions computed for object CZ-6A R/B.

Target Orbit TCA Probability of collision Miss distance Type
SL-16 DEB LEO 2025-07-09 17:40:36 0.0004843134 318.0 (m) DEBRIS
NOAA 16 DEB SSO 2025-06-04 22:02:31 0.0001237709 57.0 (m) DEBRIS
DMSP 5D-2 F11 DEB SSO 2025-01-12 07:12:22 0.0001299025 835.0 (m) DEBRIS
FENGYUN 1C DEB SSO 2024-12-13 18:30:41 0.0005169137 356.0 (m) DEBRIS
FENGYUN 1C DEB SSO 2024-08-21 00:55:57 0.0001054786 274.0 (m) DEBRIS

Associated space launch

18 Low Earth Orbit communication satellites with Ku, Q and V band payloads for the G60 constellation operated by Shanghai Spacecom Satellite Technology (SSST) with funding backed by the Shanghai local government. Initial constellation will consist of 1296 satellites by 2027 with long term plans to expand it to 12000 satellites.

CZ-6A R/B was lifted into orbit during the mission ‘Long March 6A | G60 Polar Group 01’, on board a Long March 6A space rocket.

The launch took place on Aug. 6, 2024, 6:42 a.m. from Launch Complex 9A.

For more information about the launch, click the button.

Launch to space Long March 6A | G60 Polar Group 01
Long March 6A | G60 Polar Group 01

Agency: N/A

Status: Launch Successful

Launch date: Aug. 6, 2024, 6:42 a.m. UTC

Rocket: Long March 6A

Launch pad: Launch Complex 9A

Location: Taiyuan Satellite Launch Center, People's Republic of China

...

Latest news about this satellite

News about space launch
Brightness of first Chinese broadband constellation satellites alarms astronomers

The first satellites of a Chinese broadband constellation are significantly brighter than those of Western systems, posing a new challenge for astronomers.

News about space launch
Chinese rocket stage breaks up into cloud of more than 700 pieces of space debris

HELSINKI — A Chinese Long March 6A rocket’s upper stage has fragmented into a cloud of over 700 pieces of space debris, adding to concerns about long-term orbital safety. China […]

News about space launch
China's Thousand Sails Megaconstellation Kicks Off with Dangerous Debris Field

China's Thousand Sails Megaconstellation Kicks Off with Dangerous Debris Field


Newsletter sign-up

Weekly statistics, charts and insights to help you stay on top of the space industry.